Regional Weather Roundup
Issued by NWS Goodland, KS

Home | Current Version | Previous Version | Graphics & Text | Print | Product List | Glossary On
Versions: 1 2 3 4 5 6 7 8 9 10 11 12 13 14 15 16 17 18 19 20 21 22 23 24 25 26 27 28 29 30 31 32 33 34 35 36 37 38 39 40 41 42 43 44 45 46 47 48 49 50
000
ASUS43 KGLD 201708
RWRGLD

GOODLAND FORECAST AREA HOURLY WEATHER ROUNDUP
NATIONAL WEATHER SERVICE GOODLAND KS
1000 AM MST SAT DEC 20 2014

...OFFICIAL OBSERVATIONS...

CITY           SKY/WX    TMP DP  RH WIND       PRES   REMARKS
GOODLAND KS    MOSUNNY   45  32  60 W7        30.03S
HILL CITY KS   SUNNY     40  30  67 SW3       30.06F
IMPERIAL NEB   CLOUDY    30  22  72 W6        30.02S
MCCOOK NEB     PTSUNNY   33  26  75 W7        30.04S
AKRON CO       CLOUDY    31  21  66 NW6       30.02R
BURLINGTON CO  MOSUNNY   43  29  57 W8        30.02S
LIMON CO       PTSUNNY   37  25  61 NE3       30.03R
$$

...UNOFFICIAL OBSERVATIONS...

CITY           SKY/WX    TMP DP  RH WIND       PRES   REMARKS
COLBY KS       SUNNY     45  37  76 W7        30.03S
GOVE KS          N/A     41  32  70 MISG        N/A
NORTON KS      SUNNY     39  30  70 CALM      30.04F
SHARON SPRINGS   N/A     39  34  81 CALM        N/A
TRIBUNE KS     MOSUNNY   43  37  81 CALM      30.06S
KIT CARSON CO    N/A     34  32  92 MISG        N/A
$$


USA.gov is the U.S. government's official web portal to all federal, state and local government web resources and services.